When you browse on this site, cookies collect data to enhance your experience and personalize the content and advertising you see.
Visit our Privacy Policy to learn more. By continuing to use the site, you agree to this use of cookies and data.
  • In Switzerland
  • List of Countries
  • For 7 days
  • Water Temperature
  • Satellite Maps
  • Weather Map
  • Weather Widgets
  • user-avatar
    Login

    Hourly Weather Fier

    Today, 21 March, Thursday

    Time Temperature Precipitation Wind Pressure Humidity
    00:00 +15°C° 0 mm 2 mps 766 mmHg 70%
    01:00 +15°C° 0 mm 2 mps 766 mmHg 67%
    02:00 +14°C° 0 mm 3 mps 766 mmHg 67%
    03:00 +14°C° 0 mm 3 mps 766 mmHg 67%
    04:00 +13°C° 0 mm 3 mps 766 mmHg 67%
    05:00 +13°C° 0 mm 3 mps 766 mmHg 68%
    06:00 +14°C° 0 mm 3 mps 767 mmHg 68%
    07:00 +14°C° 0 mm 3 mps 767 mmHg 68%
    08:00 +17°C° 0 mm 3 mps 767 mmHg 60%
    09:00 +19°C° 0 mm 3 mps 767 mmHg 52%
    10:00 +21°C° 0 mm 3 mps 767 mmHg 45%
    11:00 +22°C° 0 mm 3 mps 767 mmHg 42%
    12:00 +24°C° 0 mm 3 mps 767 mmHg 40%
    13:00 +24°C° 0 mm 3 mps 767 mmHg 37%
    14:00 +23°C° 0 mm 4 mps 766 mmHg 39%
    15:00 +22°C° 0 mm 4 mps 766 mmHg 40%
    16:00 +22°C° 0 mm 4 mps 766 mmHg 42%
    17:00 +20°C° 0 mm 4 mps 766 mmHg 46%
    18:00 +18°C° 0 mm 4 mps 766 mmHg 49%
    19:00 +15°C° 0 mm 4 mps 767 mmHg 53%
    20:00 +15°C° 0 mm 4 mps 767 mmHg 55%
    21:00 +14°C° 0 mm 4 mps 767 mmHg 57%
    22:00 +13°C° 0 mm 3 mps 768 mmHg 60%
    23:00 +13°C° 0 mm 3 mps 768 mmHg 61%

    Tomorrow, 22 March, Friday

    Time Temperature Precipitation Wind Pressure Humidity
    00:00 +13°C° 0 mm 3 mps 768 mmHg 62%
    01:00 +12°C° 0 mm 3 mps 768 mmHg 63%
    02:00 +12°C° 0 mm 3 mps 768 mmHg 64%
    03:00 +12°C° 0 mm 3 mps 768 mmHg 65%
    04:00 +12°C° 0 mm 2 mps 768 mmHg 66%
    05:00 +12°C° 0 mm 3 mps 768 mmHg 67%
    06:00 +12°C° 0 mm 3 mps 768 mmHg 67%
    07:00 +13°C° 0 mm 3 mps 768 mmHg 68%
    08:00 +16°C° 0 mm 2 mps 768 mmHg 60%
    09:00 +18°C° 0 mm 2 mps 768 mmHg 52%
    10:00 +20°C° 0 mm 2 mps 767 mmHg 44%
    11:00 +21°C° 0 mm 2 mps 767 mmHg 41%
    12:00 +22°C° 0 mm 3 mps 767 mmHg 39%
    13:00 +22°C° 0 mm 3 mps 767 mmHg 36%
    14:00 +22°C° 0 mm 3 mps 766 mmHg 39%
    15:00 +21°C° 0 mm 4 mps 766 mmHg 41%
    16:00 +21°C° 0 mm 5 mps 765 mmHg 44%
    17:00 +19°C° 0 mm 4 mps 765 mmHg 51%
    18:00 +17°C° 0 mm 4 mps 765 mmHg 59%
    19:00 +14°C° 0 mm 3 mps 766 mmHg 66%
    20:00 +14°C° 0 mm 3 mps 766 mmHg 65%
    21:00 +13°C° 0 mm 3 mps 766 mmHg 64%
    22:00 +14°C° 0 mm 2 mps 766 mmHg 63%
    23:00 +14°C° 0 mm 2 mps 766 mmHg 62%

    Day after tomorrow, 23 March, Saturday

    Time Temperature Precipitation Wind Pressure Humidity
    00:00 +13°C° 0 mm 2 mps 766 mmHg 60%
    01:00 +13°C° 0 mm 2 mps 766 mmHg 59%
    02:00 +13°C° 0 mm 2 mps 765 mmHg 60%
    03:00 +12°C° 0 mm 2 mps 765 mmHg 60%
    04:00 +12°C° 0 mm 2 mps 765 mmHg 61%
    05:00 +13°C° 0 mm 2 mps 765 mmHg 62%
    06:00 +13°C° 0 mm 2 mps 765 mmHg 63%
    07:00 +14°C° 0 mm 2 mps 765 mmHg 63%
    08:00 +16°C° 0 mm 2 mps 765 mmHg 56%
    09:00 +18°C° 0 mm 2 mps 765 mmHg 48%
    10:00 +20°C° 0 mm 2 mps 765 mmHg 41%
    11:00 +21°C° 0 mm 2 mps 764 mmHg 39%
    12:00 +22°C° 0 mm 3 mps 764 mmHg 37%
    13:00 +24°C° 0 mm 3 mps 764 mmHg 36%
    14:00 +22°C° 0 mm 3 mps 764 mmHg 39%
    15:00 +21°C° 0 mm 4 mps 763 mmHg 43%
    16:00 +21°C° 0 mm 4 mps 763 mmHg 46%
    17:00 +19°C° 0 mm 4 mps 763 mmHg 54%
    18:00 +17°C° 0 mm 3 mps 764 mmHg 61%
    19:00 +15°C° 0 mm 2 mps 764 mmHg 69%
    20:00 +15°C° 0 mm 2 mps 764 mmHg 69%
    21:00 +14°C° 0 mm 1 mps 765 mmHg 69%
    22:00 +14°C° 0 mm 1 mps 765 mmHg 69%
    23:00 +14°C° 0 mm 1 mps 765 mmHg 67%

    24 March, Sunday

    Time Temperature Precipitation Wind Pressure Humidity
    00:00 +14°C° 0 mm 1 mps 765 mmHg 66%
    01:00 +13°C° 0 mm 1 mps 765 mmHg 65%
    02:00 +13°C° 0 mm 1 mps 765 mmHg 64%
    03:00 +13°C° 0 mm 1 mps 765 mmHg 63%
    04:00 +13°C° 0 mm 1 mps 765 mmHg 62%
    05:00 +13°C° 0 mm 1 mps 765 mmHg 62%
    06:00 +14°C° 0 mm 1 mps 765 mmHg 62%
    07:00 +14°C° 0 mm 1 mps 765 mmHg 62%
    08:00 +18°C° 0 mm 1 mps 765 mmHg 55%
    09:00 +18°C° 0 mm 0 mps 765 mmHg 48%
    10:00 +20°C° 0 mm 0 mps 765 mmHg 41%
    11:00 +22°C° 0 mm 1 mps 765 mmHg 41%
    12:00 +23°C° 0 mm 2 mps 765 mmHg 41%
    13:00 +22°C° 0 mm 4 mps 765 mmHg 41%
    14:00 +21°C° 0 mm 4 mps 764 mmHg 45%
    15:00 +21°C° 0 mm 3 mps 764 mmHg 48%
    16:00 +20°C° 0 mm 3 mps 764 mmHg 52%
    17:00 +18°C° 0 mm 2 mps 764 mmHg 58%
    18:00 +16°C° 0 mm 2 mps 764 mmHg 63%
    19:00 +15°C° 0 mm 1 mps 764 mmHg 69%
    20:00 +14°C° 0 mm 1 mps 764 mmHg 69%
    21:00 +13°C° 0 mm 0 mps 764 mmHg 69%
    22:00 +13°C° 0 mm 0 mps 764 mmHg 69%
    23:00 +13°C° 0 mm 0 mps 764 mmHg 69%

    25 March, Monday

    Time Temperature Precipitation Wind Pressure Humidity
    00:00 +13°C° 0 mm 1 mps 764 mmHg 69%
    01:00 +13°C° 0 mm 1 mps 764 mmHg 68%
    02:00 +13°C° 0 mm 1 mps 764 mmHg 69%
    03:00 +13°C° 0 mm 1 mps 764 mmHg 69%
    04:00 +11°C° 0 mm 0 mps 763 mmHg 70%
    05:00 +13°C° 0 mm 1 mps 763 mmHg 68%
    06:00 +14°C° 0 mm 1 mps 763 mmHg 67%
    07:00 +15°C° 0 mm 1 mps 763 mmHg 65%
    08:00 +16°C° 0 mm 1 mps 763 mmHg 59%
    09:00 +19°C° 0 mm 1 mps 763 mmHg 53%
    10:00 +21°C° 0 mm 1 mps 763 mmHg 47%
    11:00 +20°C° 0 mm 2 mps 762 mmHg 48%
    12:00 +21°C° 0 mm 3 mps 762 mmHg 48%
    13:00 +21°C° 0 mm 4 mps 761 mmHg 49%
    14:00 +20°C° 0 mm 4 mps 761 mmHg 52%
    15:00 +20°C° 0 mm 3 mps 761 mmHg 55%
    16:00 +19°C° 0 mm 3 mps 760 mmHg 59%
    17:00 +18°C° 0 mm 2 mps 760 mmHg 66%
    18:00 +16°C° 0 mm 2 mps 760 mmHg 74%
    19:00 +14°C° 0 mm 1 mps 760 mmHg 82%
    20:00 +14°C° 0 mm 1 mps 760 mmHg 82%
    21:00 +14°C° 0 mm 1 mps 760 mmHg 82%
    22:00 +12°C° 0 mm 0 mps 760 mmHg 82%
    23:00 +12°C° 0 mm 0 mps 760 mmHg 80%

    26 March, Tuesday

    Time Temperature Precipitation Wind Pressure Humidity
    00:00 +12°C° 0 mm 0 mps 760 mmHg 79%
    01:00 +12°C° 0 mm 0 mps 759 mmHg 78%
    02:00 +11°C° 0 mm 0 mps 759 mmHg 77%
    03:00 +12°C° 0 mm 1 mps 759 mmHg 75%
    04:00 +12°C° 0 mm 1 mps 759 mmHg 74%
    05:00 +13°C° 0 mm 1 mps 759 mmHg 72%
    06:00 +13°C° 0 mm 1 mps 759 mmHg 70%
    07:00 +14°C° 0 mm 1 mps 759 mmHg 68%
    08:00 +15°C° 0 mm 1 mps 759 mmHg 62%
    09:00 +18°C° 0 mm 1 mps 759 mmHg 56%
    10:00 +19°C° 0 mm 1 mps 759 mmHg 51%
    11:00 +19°C° 0 mm 2 mps 758 mmHg 50%
    12:00 +19°C° 0 mm 3 mps 758 mmHg 49%
    13:00 +20°C° 0 mm 4 mps 758 mmHg 49%
    14:00 +19°C° 0 mm 4 mps 757 mmHg 52%
    15:00 +19°C° 0 mm 4 mps 757 mmHg 54%
    16:00 +18°C° 0 mm 4 mps 757 mmHg 57%
    17:00 +17°C° 0.1 mm 3 mps 757 mmHg 65%
    18:00 +16°C° 0.1 mm 3 mps 758 mmHg 72%
    19:00 +14°C° 0.1 mm 2 mps 758 mmHg 80%
    20:00 +14°C° 0.1 mm 2 mps 758 mmHg 82%
    21:00 +14°C° 0.1 mm 2 mps 759 mmHg 84%
    22:00 +13°C° 0.1 mm 2 mps 759 mmHg 86%
    23:00 +13°C° 0.4 mm 2 mps 759 mmHg 87%
    Show more